STARLINK-33904 (63887 NORAD) Tracking and Keplerian Element Data

This shows tracking and keplerian element data for the satellite.

Feedback or suggestion? Click here.




ElementValue
Catalog63887
NameSTARLINK-33904
Epoch Orbit576
Epoch Day354.25003472
Epoch Year2025
RAAN74.6005
Inclination70.0017
Eccentricity0.0003441
Argument of Perigee267.0176
Mean Anonmoly237.9782
Mean Motion14.98340651
Decay Rate4.819E-05
L11 63887U 25094Z 25354.25003472 .00004819 00000+0 41130-3 0 9997
L22 63887 70.0017 74.6005 0003441 267.0176 237.9782 14.98340651 5769



Live tracking and technical data element details for STARLINK-33904 (NORAD 63887). STARLINK-33904 can be tracked NOW for your location showing map with azimuth and elevation plus other details from your city location.







IsCatalogInMostPopularTable: catalog: 63887, numindb: 5
Update: records affected: 1



GetName: 63887 STARLINK-33904

Hit Count: updated at: Sat, 11 Apr 2026 21:58:17 GMT